Date,TemperatureHighF,TemperatureAvgF,TemperatureLowF,DewpointHighF,DewpointAvgF,DewpointLowF,HumidityHigh,HumidityAvg,HumidityLow,PressureMaxIn,PressureMinIn,WindSpeedMaxMPH,WindSpeedAvgMPH,GustSpeedMaxMPH,PrecipitationSumIn
2013-3-1,60.4,44.5,31.5,33.2,22.0,12.7,46,41,35,0.00,40.00,0,-999,0,0.00
2013-3-2,65.5,48.7,36.9,35.9,26.0,19.6,50,41,32,0.00,40.00,0,-999,0,0.00
2013-3-3,55.4,38.7,28.0,31.4,22.8,14.7,65,52,39,0.00,40.00,0,-999,0,0.00
2013-3-4,32.9,25.0,16.7,15.8,11.2,4.7,55,52,44,0.00,40.00,0,-999,0,0.00
2013-3-5,33.5,23.4,12.9,19.5,11.7,2.2,71,57,50,0.00,40.00,0,-999,0,0.00
2013-3-6,37.1,28.8,18.4,23.5,17.8,9.7,69,62,53,0.00,40.00,0,-999,0,0.00
2013-3-7,57.9,39.9,26.1,35.7,24.7,18.5,73,56,32,0.00,40.00,0,-999,0,0.00
2013-3-8,47.0,39.2,32.7,28.9,24.0,19.7,65,55,45,0.00,40.00,0,-999,0,0.00
2013-3-9,49.1,36.4,25.2,28.8,19.7,12.2,67,51,35,0.00,40.00,0,-999,0,0.00
2013-3-10,57.9,41.2,21.9,30.4,20.2,9.7,56,43,32,0.00,40.00,0,-999,0,0.00
2013-3-11,49.2,39.9,33.1,24.5,18.6,12.7,50,42,34,0.00,40.00,0,-999,0,0.00
2013-3-12,50.2,36.6,23.9,26.2,19.2,13.0,60,49,37,0.00,40.00,0,-999,0,0.00
2013-3-13,70.0,51.2,32.5,38.9,25.9,16.1,51,38,28,0.00,40.00,0,-999,0,0.00
2013-3-14,72.0,53.6,36.7,40.4,27.5,18.4,50,37,27,0.00,40.00,0,-999,0,0.00
2013-3-15,71.3,52.1,36.6,37.2,26.5,21.3,63,38,25,0.00,40.00,0,-999,0,0.00
2013-3-16,51.1,38.2,27.8,29.9,23.3,18.7,75,55,39,0.00,40.00,0,-999,0,0.00
2013-3-17,44.2,35.6,24.4,25.9,18.3,7.6,67,49,36,0.00,40.00,0,-999,0,0.00
2013-3-18,50.2,31.8,18.4,24.4,11.6,4.0,52,42,32,0.00,40.00,0,-999,0,0.00
2013-3-19,40.8,32.0,25.7,24.3,16.5,11.9,75,51,41,0.00,40.00,0,-999,0,0.00
2013-3-20,58.0,38.5,21.2,31.1,18.4,9.0,57,44,31,0.00,40.00,0,-999,0,0.00
2013-3-21,50.6,41.8,33.2,25.3,19.3,7.8,59,41,31,0.00,40.00,0,-999,0,0.00
2013-3-22,37.9,28.2,21.1,24.8,12.4,2.5,75,49,34,0.00,40.00,0,-999,0,0.00
2013-3-23,42.4,27.5,15.3,19.5,9.7,4.1,57,45,33,0.00,40.00,0,-999,0,0.00
2013-3-24,37.5,25.5,15.4,15.2,7.6,2.0,53,44,33,0.00,40.00,0,-999,0,0.00
2013-3-25,51.7,32.0,12.7,25.6,10.2,-1.2,50,39,29,0.00,40.00,0,-999,0,0.00
2013-3-26,41.0,32.1,26.6,13.8,9.2,6.7,39,35,32,0.00,40.00,0,-999,0,0.00
2013-3-27,64.5,46.1,25.2,31.5,19.1,7.4,43,34,26,0.00,40.00,0,-999,0,0.00
2013-3-28,69.6,49.5,30.7,37.5,22.2,11.4,43,34,27,0.00,40.00,0,-999,0,0.00
2013-3-29,66.8,50.9,38.8,36.8,26.9,17.0,54,40,32,0.00,40.00,0,-999,0,0.00
2013-3-30,65.3,51.4,38.8,37.4,27.7,19.1,56,41,30,0.00,40.00,0,-999,0,0.00
2013-3-31,65.8,46.9,33.0,34.4,20.8,13.8,46,36,28,0.00,40.00,0,-999,0,0.00